Flag for Germany Weather for the Past 2 Weeks in Neustadt am Rübenberge, Lower Saxony, Germany

Now
37 °F

Chilly.


Feels Like: 34 °F
Forecast: 42 / 62 °F
Wind: 5 mph from Southeast

Location: Wunstorf Airport

Current Time: Apr 30, 2016 at 5:34:47 AM

Latest Report: Apr 30, 2016 at 4:20 AM


Visibility: 3 mi

Pressure: 30.01 "Hg

Humidity: 93%

Dew Point: 36 °F

Location of Neustadt am RübenbergeLocation

Historic Weather in Neustadt am Rübenberge — Graph

°F

Neustadt am Rübenberge Temperature Yesterday

Maximum temperature yesterday: 55 °F (at 1:20 PM)
Minimum temperature yesterday: 34 °F (at 1:20 AM)
Average temperature yesterday: 46 °F

High & Low Weather Summary for the Past Weeks

 TemperatureHumidityPressure
High61 °F (Apr 16, 4:20 PM)94% (Apr 15, 10:20 AM)30.45 "Hg (Apr 15, 10:20 AM)
Low32 °F (Apr 21, 5:20 AM)31% (Apr 21, 4:20 PM)29.39 "Hg (Apr 26, 1:20 PM)
Average45 °F70%29.89 "Hg
* Reported Apr 15 3:20 AM — Apr 30 3:20 AM, Neustadt am Rübenberge, Weather by CustomWeather, © 2016

Note: Actual official high and low records may vary slightly from our data, if they occured in-between our weather recording intervals... More about our weather records

Advertising

Neustadt am Rübenberge Weather History for the Previous 24 Hours

Scroll right to see more
 ConditionsComfort  
Time TempWeatherWind HumidityBarometerVisibility
3:20 AM
Sat, Apr 30
37 °FChilly.5 mph93%30.01 "Hg3 mi
2:20 AM39 °FChilly.2 mph93%30.01 "Hg3 mi
1:20 AM41 °FQuite cool.3 mph87%30.01 "Hg3 mi
12:20 AM43 °FQuite cool.No wind87%30.01 "Hg4 mi
11:20 PM
Fri, Apr 29
45 °FQuite cool.1 mph81%30.01 "Hg4 mi
10:20 PM46 °FCool.6 mph82%30.01 "Hg4 mi
9:20 PM48 °FCool.3 mph71%29.98 "Hg5 mi
8:20 PM50 °FCool.7 mph54%29.98 "Hg5 mi
7:20 PM54 °FCool.12 mph44%29.95 "Hg5 mi
6:20 PM55 °FRefreshingly cool.18 mph41%29.95 "Hg6 mi
5:20 PM55 °FRefreshingly cool.17 mph41%29.95 "Hg6 mi
4:20 PM55 °FRefreshingly cool.20 mph41%29.95 "Hg6 mi
3:20 PM55 °FRefreshingly cool.21 mph41%29.95 "Hg6 mi
2:20 PM54 °FCool.15 mph44%29.95 "Hg6 mi
1:59 PM55 °FPartly sunny.17 mph44%29.95 "HgN/A
1:20 PM55 °FBroken clouds.20 mph41%29.92 "HgN/A
12:20 PM54 °FBroken clouds.20 mph41%29.95 "HgN/A
11:20 AM54 °FPartly sunny.22 mph41%29.95 "HgN/A
10:20 AM52 °FPartly sunny.16 mph50%29.95 "HgN/A
9:20 AM48 °FScattered clouds.13 mph58%29.95 "HgN/A
8:20 AM41 °FPartly sunny.6 mph81%29.95 "HgN/A
7:20 AM37 °FPartly sunny.8 mph87%29.95 "HgN/A
6:20 AM36 °FPassing clouds.9 mph87%29.95 "HgN/A
5:20 AM34 °FPassing clouds.8 mph93%29.95 "HgN/A
Weather by CustomWeather, © 2016

See weather overviewHow to use our weather pages